• In Netherlands
  • List of Countries
  • For 7 days
  • Water Temperature
  • Satellite Maps
  • Weather Map
  • Weather Widgets
  • user-avatar
    Login

    Hourly Weather Perth

    Today, 26 February, Sunday

    Time Temperature Precipitation Wind Pressure Humidity
    00:00 +25°C° 0 mm 3 mps 757 mmHg 39%
    01:00 +24°C° 0 mm 3 mps 756 mmHg 43%
    02:00 +22°C° 0 mm 3 mps 756 mmHg 45%
    03:00 +22°C° 0 mm 3 mps 756 mmHg 47%
    04:00 +21°C° 0 mm 3 mps 756 mmHg 49%
    05:00 +20°C° 0 mm 3 mps 756 mmHg 51%
    06:00 +24°C° 0 mm 3 mps 756 mmHg 45%
    07:00 +26°C° 0 mm 3 mps 756 mmHg 38%
    08:00 +28°C° 0 mm 3 mps 757 mmHg 41%
    09:00 +30°C° 0 mm 3 mps 757 mmHg 37%
    10:00 +33°C° 0 mm 4 mps 756 mmHg 34%
    11:00 +35°C° 0 mm 4 mps 756 mmHg 31%
    12:00 +36°C° 0 mm 4 mps 756 mmHg 29%
    13:00 +36°C° 0 mm 5 mps 756 mmHg 27%
    14:00 +35°C° 0 mm 4 mps 756 mmHg 31%
    15:00 +34°C° 0 mm 4 mps 756 mmHg 32%
    16:00 +34°C° 0 mm 4 mps 756 mmHg 34%
    17:00 +33°C° 0 mm 5 mps 756 mmHg 35%
    18:00 +29°C° 0 mm 4 mps 757 mmHg 46%
    19:00 +26°C° 0 mm 4 mps 757 mmHg 58%
    20:00 +22°C° 0 mm 4 mps 758 mmHg 70%
    21:00 +22°C° 0 mm 4 mps 758 mmHg 71%
    22:00 +21°C° 0 mm 4 mps 758 mmHg 73%
    23:00 +21°C° 0 mm 3 mps 758 mmHg 75%

    Tomorrow, 27 February, Monday

    Time Temperature Precipitation Wind Pressure Humidity
    00:00 +20°C° 0 mm 3 mps 758 mmHg 75%
    01:00 +20°C° 0 mm 3 mps 758 mmHg 75%
    02:00 +20°C° 0 mm 3 mps 758 mmHg 76%
    03:00 +20°C° 0 mm 3 mps 758 mmHg 77%
    04:00 +19°C° 0 mm 3 mps 758 mmHg 78%
    05:00 +19°C° 0 mm 3 mps 758 mmHg 79%
    06:00 +21°C° 0 mm 3 mps 759 mmHg 71%
    07:00 +22°C° 0 mm 3 mps 759 mmHg 64%
    08:00 +25°C° 0 mm 3 mps 759 mmHg 57%
    09:00 +28°C° 0 mm 3 mps 759 mmHg 49%
    10:00 +31°C° 0 mm 3 mps 759 mmHg 40%
    11:00 +35°C° 0 mm 2 mps 759 mmHg 31%
    12:00 +36°C° 0 mm 3 mps 758 mmHg 29%
    13:00 +36°C° 0 mm 4 mps 758 mmHg 27%
    14:00 +37°C° 0 mm 4 mps 758 mmHg 25%
    15:00 +36°C° 0 mm 5 mps 757 mmHg 29%
    16:00 +34°C° 0 mm 5 mps 757 mmHg 33%
    17:00 +33°C° 0 mm 6 mps 757 mmHg 36%
    18:00 +29°C° 0 mm 5 mps 758 mmHg 45%
    19:00 +27°C° 0 mm 5 mps 758 mmHg 54%
    20:00 +23°C° 0 mm 4 mps 759 mmHg 63%
    21:00 +23°C° 0 mm 4 mps 759 mmHg 65%
    22:00 +22°C° 0 mm 4 mps 759 mmHg 66%
    23:00 +21°C° 0 mm 4 mps 760 mmHg 68%

    Day after tomorrow, 28 February, Tuesday

    Time Temperature Precipitation Wind Pressure Humidity
    00:00 +22°C° 0 mm 4 mps 759 mmHg 67%
    01:00 +22°C° 0 mm 4 mps 759 mmHg 67%
    02:00 +22°C° 0 mm 4 mps 759 mmHg 66%
    03:00 +22°C° 0 mm 4 mps 759 mmHg 66%
    04:00 +21°C° 0 mm 4 mps 759 mmHg 66%
    05:00 +21°C° 0 mm 4 mps 759 mmHg 65%
    06:00 +22°C° 0 mm 4 mps 759 mmHg 62%
    07:00 +23°C° 0 mm 4 mps 759 mmHg 59%
    08:00 +25°C° 0 mm 4 mps 760 mmHg 55%
    09:00 +27°C° 0 mm 4 mps 760 mmHg 49%
    10:00 +30°C° 0 mm 4 mps 759 mmHg 43%
    11:00 +34°C° 0 mm 3 mps 759 mmHg 36%
    12:00 +36°C° 0 mm 3 mps 759 mmHg 31%
    13:00 +38°C° 0 mm 3 mps 758 mmHg 27%
    14:00 +40°C° 0 mm 3 mps 757 mmHg 22%
    15:00 +39°C° 0 mm 3 mps 757 mmHg 24%
    16:00 +38°C° 0 mm 4 mps 757 mmHg 25%
    17:00 +37°C° 0 mm 4 mps 756 mmHg 27%
    18:00 +34°C° 0 mm 4 mps 757 mmHg 37%
    19:00 +29°C° 0 mm 3 mps 757 mmHg 47%
    20:00 +26°C° 0 mm 3 mps 757 mmHg 56%
    21:00 +26°C° 0 mm 3 mps 758 mmHg 58%
    22:00 +25°C° 0 mm 3 mps 758 mmHg 60%
    23:00 +25°C° 0 mm 3 mps 758 mmHg 62%

    1 March, Wednesday

    Time Temperature Precipitation Wind Pressure Humidity
    00:00 +25°C° 0 mm 3 mps 758 mmHg 60%
    01:00 +26°C° 0 mm 3 mps 758 mmHg 57%
    02:00 +27°C° 0 mm 3 mps 758 mmHg 55%
    03:00 +27°C° 0 mm 3 mps 758 mmHg 54%
    04:00 +27°C° 0 mm 3 mps 758 mmHg 54%
    05:00 +27°C° 0 mm 3 mps 758 mmHg 53%
    06:00 +28°C° 0 mm 3 mps 758 mmHg 51%
    07:00 +28°C° 0 mm 3 mps 758 mmHg 48%
    08:00 +29°C° 0 mm 3 mps 759 mmHg 46%
    09:00 +33°C° 0 mm 3 mps 758 mmHg 38%
    10:00 +36°C° 0 mm 2 mps 758 mmHg 30%
    11:00 +39°C° 0 mm 2 mps 758 mmHg 22%
    12:00 +40°C° 0 mm 2 mps 757 mmHg 21%
    13:00 +42°C° 0 mm 3 mps 757 mmHg 20%
    14:00 +43°C° 0 mm 3 mps 756 mmHg 19%
    15:00 +41°C° 0 mm 4 mps 756 mmHg 22%
    16:00 +40°C° 0 mm 4 mps 756 mmHg 25%
    17:00 +38°C° 0 mm 4 mps 756 mmHg 28%
    18:00 +34°C° 0.1 mm 4 mps 756 mmHg 39%
    19:00 +30°C° 0.1 mm 3 mps 757 mmHg 50%
    20:00 +26°C° 0.1 mm 3 mps 757 mmHg 61%
    21:00 +26°C° 0.2 mm 3 mps 758 mmHg 63%
    22:00 +25°C° 0.2 mm 2 mps 758 mmHg 64%
    23:00 +24°C° 0.2 mm 2 mps 758 mmHg 66%

    2 March, Thursday

    Time Temperature Precipitation Wind Pressure Humidity
    00:00 +24°C° 0 mm 2 mps 758 mmHg 66%
    01:00 +24°C° 0 mm 2 mps 757 mmHg 66%
    02:00 +24°C° 0 mm 1 mps 757 mmHg 66%
    03:00 +23°C° 0 mm 2 mps 757 mmHg 67%
    04:00 +23°C° 0 mm 2 mps 757 mmHg 69%
    05:00 +23°C° 0 mm 2 mps 757 mmHg 70%
    06:00 +25°C° 0 mm 2 mps 758 mmHg 63%
    07:00 +27°C° 0 mm 1 mps 758 mmHg 57%
    08:00 +29°C° 0 mm 1 mps 759 mmHg 50%
    09:00 +31°C° 0.1 mm 1 mps 759 mmHg 43%
    10:00 +35°C° 0.1 mm 2 mps 759 mmHg 35%
    11:00 +38°C° 0.1 mm 2 mps 759 mmHg 28%
    12:00 +39°C° 0 mm 3 mps 758 mmHg 28%
    13:00 +40°C° 0 mm 4 mps 758 mmHg 28%
    14:00 +40°C° 0 mm 4 mps 757 mmHg 28%
    15:00 +38°C° 0 mm 4 mps 757 mmHg 31%
    16:00 +36°C° 0 mm 4 mps 758 mmHg 35%
    17:00 +35°C° 0 mm 4 mps 758 mmHg 38%
    18:00 +32°C° 0 mm 4 mps 758 mmHg 48%
    19:00 +28°C° 0 mm 3 mps 759 mmHg 57%
    20:00 +26°C° 0 mm 3 mps 759 mmHg 67%
    21:00 +25°C° 0.1 mm 2 mps 759 mmHg 68%
    22:00 +25°C° 0.1 mm 2 mps 759 mmHg 69%
    23:00 +25°C° 0.1 mm 2 mps 759 mmHg 70%

    3 March, Friday

    Time Temperature Precipitation Wind Pressure Humidity
    00:00 +25°C° 0.2 mm 2 mps 759 mmHg 69%
    01:00 +24°C° 0.2 mm 2 mps 759 mmHg 68%
    02:00 +24°C° 0.2 mm 2 mps 758 mmHg 67%
    03:00 +24°C° 0 mm 2 mps 758 mmHg 69%
    04:00 +23°C° 0 mm 2 mps 758 mmHg 70%
    05:00 +22°C° 0 mm 1 mps 758 mmHg 72%
    06:00 +24°C° 0 mm 2 mps 759 mmHg 67%
    07:00 +25°C° 0 mm 2 mps 759 mmHg 63%
    08:00 +27°C° 0 mm 2 mps 759 mmHg 58%
    09:00 +30°C° 0 mm 2 mps 759 mmHg 50%
    10:00 +34°C° 0 mm 2 mps 759 mmHg 42%
    11:00 +36°C° 0 mm 3 mps 759 mmHg 34%
    12:00 +38°C° 0 mm 3 mps 758 mmHg 31%
    13:00 +39°C° 0 mm 3 mps 758 mmHg 28%
    14:00 +41°C° 0 mm 4 mps 757 mmHg 24%
    15:00 +40°C° 0 mm 4 mps 757 mmHg 27%
    16:00 +38°C° 0 mm 4 mps 757 mmHg 31%
    17:00 +36°C° 0 mm 5 mps 757 mmHg 34%
    18:00 +34°C° 0 mm 4 mps 758 mmHg 41%
    19:00 +30°C° 0 mm 4 mps 758 mmHg 48%
    20:00 +28°C° 0 mm 4 mps 758 mmHg 55%
    21:00 +27°C° 0.2 mm 4 mps 758 mmHg 58%
    22:00 +26°C° 0.2 mm 3 mps 759 mmHg 60%
    23:00 +26°C° 0.2 mm 3 mps 759 mmHg 63%
    Show more